Location: Godiavel Galaoual
(15.2485°N, 12.6604°W)
Time: 00:19:36
(UTC+00:00)

Transit 4A - Pass Details

Date: 14 June 2021
Orbit: 872 x 972 km, 66.8° (Epoch: 29 July)

Event Time Altitude Azimuth Distance (km) Brightness Sun altitude
Rises 21:24:28 0° 341° (NNW) 3,458 11.7 -26.5°
Reaches altitude 10° 21:26:56 10° 342° (NNW) 2,525 10.8 -26.9°
Enters shadow 21:32:43 79° 61° (ENE) 905 7.7 -28.1°
Maximum altitude 21:32:46 79° 69° (ENE) 904 - -28.1°
Drops below altitude 10° 21:38:44 10° 156° (SSE) 2,575 - -29.2°
Sets 21:41:16 0° 157° (SSE) 3,530 - -29.7°
